星链-5417 (STARLINK-5417 )

导读

STARLINK-5417是美国SpaceX公司星链(Starlink)卫星互联网星座中的一颗低轨卫星,于2022年12月17日发射入轨。星链项目计划在近地轨道部署数万颗卫星,旨在为全球,尤其是地面基础设施难以覆盖的偏远地区提供高速低延迟的宽带互联网服务。作为星座组网的一员,STARLINK-5417承担着全球网络覆盖、通信互联的功能,助力推进全球互联网普及,同时也延续了星链项目持续扩展低轨卫星星座的部署节奏。

Basic Information
目录编号:
54805
目录名称:
STARLINK-5417
国际标识:
2022-175AZ
轨道中心:
EARTH
卫星名称:
星链-5417
卫星全名:
星链-5417 (STARLINK-5417 )
卫星状态:
在轨 (已飞行1365 天)
发射日期:
2022-12-17 UTC
国别 :
美国 (US)
星等 :
--
This satellite is enrolled in the Space Conjunction Data Service (SCDS) and the current flight risk assessment level is: No High Risk
Orbit Information
数据来源 国际轨道数据 AOE轨道数据
星历时间 2026-09-12T10:01:55+0800
12小时前
查看轨道信息
2026-09-10T08:00:00+0800
2天前
查看轨道信息
半长轴 6920.412km 6920.41km
偏心率 0.0001271 0.0001391
轨道倾角 53.158° 53.158°
近地点辐角 81.848° 65.580°
升交点赤经 272.345° 281.707°
平近点角 278.266° 131.003°
近地点 541.395km 541.31km
远地点 543.155km 543.236km
周期 95.490分钟 95.490分钟
每日圈数 15.080124 15.080131
Detailed Information
固有亮度:
5
最大亮度:
2.5
卫星平台:
Starlink v1.5
覆盖范围:
全球
运营商:
太空探索技术公司
运营商所在国:
美国
制造商(研发单位):
太空探索技术公司
制造商所在国:
美国
使用方式:
暂无
Satellite Introduction
星链(Starlink)计划是由太空探索技术公司(SpaceX)提出的一个巨型低轨卫星互联网星座项目,计划在2019年至2024年间在太空搭建由约1.2万颗卫星组成的“星链”网络,其中1584颗将部署在地球上空550千米处的近地轨道,并从2020年开始工作。该卫星仍在工作。
2D Orbit Map
3D Orbit Map
Orbit Altitude Analysis Chart
Orbit Inclination Analysis Chart
Orbit Comprehensive Analysis Chart
View Comprehensive Chart
Miss Distance Evolution Trend with All Objects
Collision Probability Evolution Trend with All Objects